GW5170 Weather Reports


time (UTC)temp
F
wind
direction
speed
knots
gust
knots
rain 1hr
in
rain 24hr
in
rain mn
in
humidity
%
barometer
mb
20260902221120 97 315 2.6 2.6 0.00 0.00 0.00 51 1013.1
20260902220616 96 304 0.9 1.7 0.00 0.00 0.00 51 1013.1
20260902220110 95 256 1.7 2.6 0.00 0.00 0.00 53 1013.2
20260902215606 96 260 3.5 3.5 0.00 0.00 0.00 52 1013.2
20260902215101 95 325 1.7 1.7 0.00 0.00 0.00 53 1013.2
20260902214555 96 340 3.5 3.5 0.00 0.00 0.00 52 1013.5
20260902214054 94 338 1.7 2.6 0.00 0.00 0.00 53 1013.4
20260902213550 94 295 1.7 2.6 0.00 0.00 0.00 54 1013.4
20260902213049 96 309 3.5 3.5 0.00 0.00 0.00 53 1013.5
20260902212545 94 285 4.3 5.2 0.00 0.00 0.00 54 1013.5
20260902212041 94 323 3.5 3.5 0.00 0.00 0.00 55 1013.5
20260902211537 95 298 2.6 2.6 0.00 0.00 0.00 54 1013.9
20260902211032 95 336 5.2 6.1 0.00 0.00 0.00 55 1013.6
20260902210531 95 309 1.7 1.7 0.00 0.00 0.00 55 1013.7
20260902210026 95 333 1.7 2.6 0.00 0.00 0.00 54 1013.7
20260902205520 94 340 1.7 2.6 0.00 0.00 0.00 54 1014.0
20260902205016 95 318 3.5 3.5 0.00 0.00 0.00 53 1013.7
20260902204515 95 257 2.6 2.6 0.00 0.00 0.00 52 1013.7
20260902204011 96 274 1.7 2.6 0.00 0.00 0.00 52 1013.6
20260902203506 96 45 1.7 2.6 0.00 0.00 0.00 51 1013.5
20260902203005 96 254 5.2 6.1 0.00 0.00 0.00 52 1013.6
20260902202501 96 326 6.1 6.1 0.00 0.00 0.00 50 1013.7
20260902201957 96 341 5.2 7.0 0.00 0.00 0.00 50 1013.7
20260902201452 96 272 3.5 5.2 0.00 0.00 0.00 52 1013.7
20260902200951 96 345 2.6 3.5 0.00 0.00 0.00 51 1014.0
20260902200447 96 346 1.7 1.7 0.00 0.00 0.00 50 1014.0
20260902195942 96 335 3.5 6.1 0.00 0.00 0.00 50 1013.9
20260902195437 95 309 5.2 7.0 0.00 0.00 0.00 51 1014.1
20260902194932 96 259 5.2 6.1 0.00 0.00 0.00 50 1014.2
20260902194431 96 253 2.6 3.5 0.00 0.00 0.00 49 1014.2
20260902193926 96 315 3.5 3.5 0.00 0.00 0.00 50 1014.2
20260902193423 95 321 1.7 2.6 0.00 0.00 0.00 52 1014.0
20260902192921 94 290 4.3 7.0 0.00 0.00 0.00 52 1013.9
20260902192420 95 255 7.0 7.8 0.00 0.00 0.00 50 1013.9
20260902191919 94 238 4.3 6.1 0.00 0.00 0.00 50 1014.0
20260902191415 95 264 7.8 8.7 0.00 0.00 0.00 50 1014.0
20260902190910 94 265 7.8 11.3 0.00 0.00 0.00 51 1014.0
20260902190405 95 208 7.8 9.6 0.00 0.00 0.00 53 1014.0
20260902185901 95 329 3.5 5.2 0.00 0.00 0.00 53 1014.1
20260902185356 95 275 5.2 6.1 0.00 0.00 0.00 51 1014.1
20260902184851 95 277 4.3 5.2 0.00 0.00 0.00 52 1014.2
20260902184347 95 273 2.6 3.5 0.00 0.00 0.00 55 1014.1
20260902183842 95 253 4.3 5.2 0.00 0.00 0.00 52 1014.1
20260902183338 95 348 3.5 5.2 0.00 0.00 0.00 53 1014.1
20260902182828 93 255 6.1 7.8 0.00 0.00 0.00 54 1014.2
20260902182325 93 252 7.0 9.6 0.00 0.00 0.00 55 1014.2
20260902181821 93 249 2.6 5.2 0.00 0.00 0.00 56 1014.2
20260902181316 93 334 6.1 7.8 0.00 0.00 0.00 56 1014.3
20260902180810 93 247 5.2 7.0 0.00 0.00 0.00 57 1014.5
20260902180306 93 256 2.6 5.2 0.00 0.00 0.00 58 1014.5
20260902175801 93 286 3.5 3.5 0.00 0.00 0.00 58 1014.5
20260902175256 92 261 4.3 6.1 0.00 0.00 0.00 58 1014.7
20260902174757 92 241 4.3 6.1 0.00 0.00 0.00 59 1014.6
20260902174254 92 243 2.6 3.5 0.00 0.00 0.00 59 1014.7
20260902173749 91 276 1.7 2.6 0.00 0.00 0.00 60 1014.7
20260902173248 91 305 4.3 6.1 0.00 0.00 0.00 60 1015.1
20260902172743 91 283 4.3 5.2 0.00 0.00 0.00 60 1015.0
20260902172243 91 344 1.7 1.7 0.00 0.00 0.00 61 1015.1
20260902171738 90 318 1.7 1.7 0.00 0.00 0.00 60 1015.2
20260902171233 89 256 4.3 5.2 0.00 0.00 0.00 62 1015.2
20260902170730 90 275 3.5 5.2 0.00 0.00 0.00 61 1015.3
20260902170225 89 262 5.2 7.0 0.00 0.00 0.00 62 1015.0
20260902165721 90 257 5.2 7.0 0.00 0.00 0.00 63 1014.9
20260902165214 90 326 1.7 2.6 0.00 0.00 0.00 63 1015.2
20260902164709 89 220 3.5 3.5 0.00 0.00 0.00 62 1015.0
20260902164208 90 278 3.5 3.5 0.00 0.00 0.00 63 1015.2
20260902163704 90 227 1.7 3.5 0.00 0.00 0.00 59 1015.1
20260902163203 88 336 2.6 2.6 0.00 0.00 0.00 63 1015.0
20260902162701 88 266 2.6 2.6 0.00 0.00 0.00 63 1015.0
20260902162156 88 251 4.3 6.1 0.00 0.00 0.00 64 1014.9
20260902161651 87 13 1.7 2.6 0.00 0.00 0.00 64 1015.0
20260902161147 87 340 3.5 5.2 0.00 0.00 0.00 67 1014.9
20260902160644 87 237 3.5 5.2 0.00 0.00 0.00 65 1014.9
20260902160138 87 282 4.3 5.2 0.00 0.00 0.00 65 1015.0
20260902155637 86 56 3.5 5.2 0.00 0.00 0.00 67 1014.9
20260902155135 86 200 3.5 6.1 0.00 0.00 0.00 66 1015.0
20260902154630 86 274 3.5 6.1 0.00 0.00 0.00 67 1014.8
20260902154126 86 177 4.3 5.2 0.00 0.00 0.00 67 1014.7
20260902153625 86 246 1.7 2.6 0.00 0.00 0.00 65 1014.9
20260902153120 86 239 3.5 3.5 0.00 0.00 0.00 69 1014.9
20260902152616 86 267 4.3 6.1 0.00 0.00 0.00 69 1014.9
20260902152111 85 299 1.7 2.6 0.00 0.00 0.00 69 1014.9
20260902151607 86 225 3.5 5.2 0.00 0.00 0.00 67 1014.9
20260902151107 85 319 3.5 3.5 0.00 0.00 0.00 70 1014.9
20260902150602 84 298 3.5 3.5 0.00 0.00 0.00 71 1014.9
20260902150058 83 277 4.3 5.2 0.00 0.00 0.00 72 1014.8
20260902145557 84 307 3.5 5.2 0.00 0.00 0.00 71 1014.9
20260902145057 84 333 2.6 3.5 0.00 0.00 0.00 71 1014.8
20260902144554 83 208 1.7 2.6 0.00 0.00 0.00 70 1014.9
20260902144054 83 253 1.7 3.5 0.00 0.00 0.00 70 1015.0
20260902143549 83 224 3.5 3.5 0.00 0.00 0.00 73 1014.9
20260902143045 82 254 3.5 5.2 0.00 0.00 0.00 72 1014.7
20260902142543 82 268 3.5 5.2 0.00 0.00 0.00 72 1014.8
20260902142036 83 213 2.6 3.5 0.00 0.00 0.00 71 1014.7
20260902141536 82 229 3.5 3.5 0.00 0.00 0.00 72 1014.8
20260902141032 82 224 5.2 6.1 0.00 0.00 0.00 72 1014.6
20260902140532 81 263 2.6 3.5 0.00 0.00 0.00 74 1014.7
20260902140027 80 210 5.2 7.0 0.00 0.00 0.00 76 1014.8
20260902135526 80 233 3.5 3.5 0.00 0.00 0.00 76 1014.8
20260902135021 81 239 2.6 2.6 0.00 0.00 0.00 75 1014.8
20260902134517 80 225 2.6 2.6 0.00 0.00 0.00 77 1015.1
20260902134017 80 35 1.7 1.7 0.00 0.00 0.00 77 1015.2
20260902133512 80 199 2.6 2.6 0.00 0.00 0.00 77 1015.1
20260902133012 79 321 0.9 0.9 0.00 0.00 0.00 78 1015.2
20260902132507 79 331 1.7 1.7 0.00 0.00 0.00 78 1015.3
20260902132002 79 211 3.5 3.5 0.00 0.00 0.00 77 1015.4
20260902131459 79 227 1.7 1.7 0.00 0.00 0.00 76 1015.3
20260902130958 79 339 2.6 2.6 0.00 0.00 0.00 76 1015.2
20260902130454 78 265 0.9 1.7 0.00 0.00 0.00 76 1015.5
20260902125949 78 319 0.9 0.9 0.00 0.00 0.00 76 1015.5
20260902125445 78 353 0.0 0.9 0.00 0.00 0.00 77 1015.4
20260902124941 77 270 1.7 1.7 0.00 0.00 0.00 78 1015.6
20260902124437 78 324 0.0 0.9 0.00 0.00 0.00 78 1015.7
20260902123932 78 320 1.7 2.6 0.00 0.00 0.00 77 1015.5
20260902123428 77 353 0.0 0.0 0.00 0.00 0.00 78 1015.7
20260902122926 77 5 1.7 1.7 0.00 0.00 0.00 80 1015.4
20260902122422 76 240 1.7 2.6 0.00 0.00 0.00 80 1015.5
20260902121918 76 1 0.9 0.9 0.00 0.00 0.00 81 1015.6
20260902121412 76 309 1.7 1.7 0.00 0.00 0.00 81 1015.5
20260902120907 76 340 0.0 0.9 0.00 0.00 0.00 82 1016.2
20260902120404 76 355 2.6 2.6 0.00 0.00 0.00 81 1016.2
20260902115903 76 3 2.6 2.6 0.00 0.00 0.00 80 1015.9
20260902115359 75 262 3.5 3.5 0.00 0.00 0.00 81 1015.5
20260902114856 75 340 1.7 2.6 0.00 0.00 0.00 83 1015.7
20260902114351 75 325 1.7 2.6 0.00 0.00 0.00 83 1015.6
20260902113845 75 15 0.9 0.9 0.00 0.00 0.00 83 1015.3
20260902113342 75 321 0.9 0.9 0.00 0.00 0.00 83 1015.3
20260902112840 74 336 3.5 6.1 0.00 0.00 0.00 84 1015.3
20260902112337 76 12 3.5 3.5 0.00 0.00 0.00 81 1015.0
20260902111833 76 291 2.6 3.5 0.00 0.00 0.00 80 1014.5
20260902111329 76 267 1.7 1.7 0.00 0.00 0.00 80 1014.6
20260902110824 76 211 2.6 2.6 0.00 0.00 0.00 80 1014.3
20260902110320 76 219 2.6 2.6 0.00 0.00 0.00 80 1014.4
20260902105820 76 278 1.7 1.7 0.00 0.00 0.00 80 1014.6
20260902105315 76 304 1.7 2.6 0.00 0.00 0.00 80 1014.5
20260902104810 76 286 0.9 1.7 0.00 0.00 0.00 80 1014.6
20260902104306 76 280 1.7 2.6 0.00 0.00 0.00 81 1014.4
20260902103800 76 303 1.7 1.7 0.00 0.00 0.00 81 1014.5
20260902103255 76 322 0.9 0.9 0.00 0.00 0.00 81 1014.5
20260902102750 76 282 1.7 1.7 0.00 0.00 0.00 81 1014.6
20260902102248 75 313 1.7 1.7 0.00 0.00 0.00 81 1014.8
20260902101743 75 311 1.7 1.7 0.00 0.00 0.00 81 1014.5
20260902101238 75 319 1.7 2.6 0.00 0.00 0.00 82 1014.5
20260902100737 75 235 2.6 2.6 0.00 0.00 0.00 82 1014.5
20260902100231 75 229 1.7 2.6 0.00 0.00 0.00 82 1014.5
20260902095726 75 298 1.7 1.7 0.00 0.00 0.00 82 1014.4
20260902095220 76 288 1.7 1.7 0.00 0.00 0.00 82 1014.5
20260902094715 76 227 2.6 2.6 0.00 0.00 0.00 82 1014.6
20260902094212 76 224 2.6 2.6 0.00 0.00 0.00 82 1014.6
20260902093710 76 281 1.7 1.7 0.00 0.00 0.00 81 1014.9
20260902093205 76 289 1.7 1.7 0.00 0.00 0.00 81 1014.7
20260902092659 76 211 3.5 5.2 0.00 0.00 0.00 81 1015.0
20260902092155 76 297 0.9 0.9 0.00 0.00 0.00 81 1015.1
20260902091649 76 328 1.7 1.7 0.00 0.00 0.00 81 1015.1
20260902091146 76 293 0.9 1.7 0.00 0.00 0.00 80 1015.0
20260902090641 77 332 0.9 0.9 0.00 0.00 0.00 80 1015.0
20260902090140 76 236 1.7 2.6 0.00 0.00 0.00 81 1015.0
20260902085636 76 232 1.7 1.7 0.00 0.00 0.00 81 1015.1
20260902085130 76 299 1.7 1.7 0.00 0.00 0.00 81 1014.9
20260902084627 76 279 1.7 1.7 0.00 0.00 0.00 81 1014.9
20260902084122 76 295 0.9 1.7 0.00 0.00 0.00 81 1014.8
20260902083617 76 294 1.7 1.7 0.00 0.00 0.00 82 1014.7
20260902083116 76 342 0.0 0.0 0.00 0.00 0.00 82 1014.7
20260902082612 76 282 1.7 2.6 0.00 0.00 0.00 82 1014.7
20260902082109 76 305 1.7 1.7 0.00 0.00 0.00 82 1014.7
20260902081605 76 346 0.9 0.9 0.00 0.00 0.00 82 1014.6
20260902081104 77 316 0.9 0.9 0.00 0.00 0.00 82 1014.6
20260902080559 77 290 1.7 1.7 0.00 0.00 0.00 81 1014.5
20260902080056 77 312 1.7 1.7 0.00 0.00 0.00 81 1014.2
20260902075555 77 321 0.9 0.9 0.00 0.00 0.00 81 1014.4
20260902075052 77 295 1.7 1.7 0.00 0.00 0.00 81 1014.4
20260902074547 77 287 0.9 0.9 0.00 0.00 0.00 82 1014.3
20260902074042 77 276 1.7 1.7 0.00 0.00 0.00 82 1014.3
20260902073537 77 294 1.7 1.7 0.00 0.00 0.00 82 1014.4
20260902073034 77 343 0.9 0.9 0.00 0.00 0.00 82 1014.4
20260902072529 77 322 0.9 0.9 0.00 0.00 0.00 82 1014.3
20260902072026 77 333 0.0 0.9 0.00 0.00 0.00 83 1014.2
20260902071525 77 331 0.0 0.0 0.00 0.00 0.00 83 1014.2
20260902071022 77 340 0.0 0.0 0.00 0.00 0.00 83 1014.2
20260902070517 77 326 0.0 0.9 0.00 0.00 0.00 83 1014.3
20260902070017 77 293 0.9 0.9 0.00 0.00 0.00 83 1014.3
20260902065511 77 319 0.9 0.9 0.00 0.00 0.00 84 1014.6
20260902065006 76 330 0.9 0.9 0.00 0.00 0.00 84 1014.4
20260902064502 77 338 1.7 1.7 0.00 0.00 0.00 84 1014.5
20260902063958 77 351 0.9 0.9 0.00 0.00 0.00 84 1014.3
20260902063457 77 327 0.9 0.9 0.00 0.00 0.00 84 1014.4
20260902062953 77 329 0.0 0.9 0.00 0.00 0.00 84 1014.6
20260902062445 77 333 0.9 0.9 0.00 0.00 0.00 83 1014.5
20260902061940 77 316 0.9 1.7 0.00 0.00 0.00 83 1014.7
20260902061435 78 295 1.7 1.7 0.00 0.00 0.00 83 1014.4
20260902060931 78 325 0.9 0.9 0.00 0.00 0.00 83 1014.9
20260902060427 78 325 0.9 0.9 0.00 0.00 0.00 83 1014.7
20260902055923 78 320 0.9 0.9 0.00 0.00 0.00 83 1014.6
20260902055419 78 322 0.9 0.9 0.00 0.00 0.00 83 1014.6
20260902054914 78 357 0.9 0.9 0.00 0.00 0.00 83 1014.6
20260902054409 78 335 0.9 0.9 0.00 0.00 0.00 83 1014.4
20260902053904 78 222 1.7 1.7 0.00 0.00 0.00 83 1014.5
20260902053400 78 305 0.9 0.9 0.00 0.00 0.00 83 1014.6
20260902052900 78 232 2.6 2.6 0.00 0.00 0.00 82 1014.6
20260902052355 78 315 0.9 0.9 0.00 0.00 0.00 82 1014.6
20260902051850 78 309 0.9 0.9 0.00 0.00 0.00 82 1014.7
20260902051349 79 344 0.9 0.9 0.00 0.00 0.00 82 1014.7
20260902050843 79 335 0.9 0.9 0.00 0.00 0.00 82 1014.9
20260902050342 79 291 1.7 1.7 0.00 0.00 0.00 82 1014.8
20260902045838 79 321 0.9 0.9 0.00 0.00 0.00 82 1014.9
20260902045334 79 319 0.9 0.9 0.00 0.00 0.00 82 1014.8
20260902044830 79 330 0.0 0.9 0.00 0.00 0.00 82 1014.7
20260902044325 79 325 0.0 0.9 0.00 0.00 0.00 83 1014.8
20260902043826 79 337 0.0 0.0 0.00 0.00 0.00 82 1014.6
20260902043321 79 339 0.0 0.9 0.00 0.00 0.00 82 1014.6
20260902042820 79 319 0.9 0.9 0.00 0.00 0.00 82 1014.8
20260902042315 79 341 0.9 1.7 0.00 0.00 0.00 82 1014.8
20260902041810 80 342 0.9 1.7 0.00 0.00 0.00 81 1014.7
20260902041310 80 305 0.9 1.7 0.00 0.00 0.00 81 1014.7
20260902040809 80 314 1.7 2.6 0.00 0.00 0.00 81 1014.7
20260902040305 80 303 0.9 0.9 0.00 0.00 0.00 80 1014.6
20260902035803 80 343 1.7 1.7 0.00 0.00 0.00 79 1014.7
20260902035259 81 268 2.6 3.5 0.00 0.00 0.00 79 1014.6
20260902034757 81 241 1.7 2.6 0.00 0.00 0.00 79 1014.7
20260902034253 81 233 3.5 3.5 0.00 0.00 0.00 78 1014.8
20260902033750 81 325 1.7 2.6 0.00 0.00 0.00 78 1014.7
20260902033246 81 275 1.7 1.7 0.00 0.00 0.00 78 1014.5
20260902032744 82 311 0.9 1.7 0.00 0.00 0.00 78 1014.6
20260902032240 82 303 0.9 1.7 0.00 0.00 0.00 77 1014.5
20260902031740 82 263 2.6 2.6 0.00 0.00 0.00 77 1014.6
20260902031235 82 308 1.7 2.6 0.00 0.00 0.00 77 1014.5
20260902030731 82 304 1.7 1.7 0.00 0.00 0.00 77 1014.5
20260902030231 82 281 0.9 0.9 0.00 0.00 0.00 77 1014.5
20260902025730 82 327 1.7 1.7 0.00 0.00 0.00 77 1014.5
20260902025225 82 312 0.9 1.7 0.00 0.00 0.00 77 1014.3
20260902024720 82 316 0.0 0.9 0.00 0.00 0.00 77 1014.6
20260902024216 82 329 0.9 0.9 0.00 0.00 0.00 77 1014.5
20260902023712 82 315 1.7 1.7 0.00 0.00 0.00 77 1014.5
20260902023207 82 120 1.7 1.7 0.00 0.00 0.00 77 1014.4
20260902022701 82 316 1.7 1.7 0.00 0.00 0.00 77 1014.4
20260902022156 82 321 0.9 1.7 0.00 0.00 0.00 77 1014.4
20260902021652 82 341 0.9 1.7 0.00 0.00 0.00 78 1014.4
20260902021151 83 325 0.9 0.9 0.00 0.00 0.00 78 1014.5
20260902020648 83 300 0.9 1.7 0.00 0.00 0.00 77 1014.6
20260902020143 83 308 0.9 1.7 0.00 0.00 0.00 78 1014.4
20260902015639 83 229 1.7 1.7 0.00 0.00 0.00 78 1014.5
20260902015135 84 325 0.9 0.9 0.00 0.00 0.00 78 1014.3
20260902014631 84 288 1.7 1.7 0.00 0.00 0.00 77 1014.3
20260902014126 84 349 0.9 0.9 0.00 0.00 0.00 77 1014.4
20260902013625 84 321 0.9 0.9 0.00 0.00 0.00 77 1014.2
20260902013121 84 338 0.0 0.9 0.00 0.00 0.00 77 1014.3
20260902012616 85 275 1.7 1.7 0.00 0.00 0.00 76 1014.1
20260902012112 85 338 1.7 1.7 0.00 0.00 0.00 76 1014.2
20260902011608 85 281 0.9 0.9 0.00 0.00 0.00 76 1014.2
20260902011106 85 228 2.6 2.6 0.00 0.00 0.00 76 1014.1
20260902010601 86 214 1.7 2.6 0.00 0.00 0.00 75 1014.2
20260902010057 86 302 0.9 0.9 0.00 0.00 0.00 74 1013.9
20260902005554 86 356 0.9 0.9 0.00 0.00 0.00 74 1014.0
20260902005051 86 330 0.0 0.9 0.00 0.00 0.00 73 1014.1
20260902004550 87 299 0.9 1.7 0.00 0.00 0.00 73 1014.0
20260902004045 87 309 2.6 2.6 0.00 0.00 0.00 73 1014.0
20260902003541 87 337 0.9 0.9 0.00 0.00 0.00 72 1013.9
20260902003036 87 337 0.9 0.9 0.00 0.00 0.00 71 1014.1
20260902002531 88 249 2.6 2.6 0.00 0.00 0.00 70 1013.9
20260902002026 88 197 3.5 5.2 0.00 0.00 0.00 69 1013.9
20260902001520 88 243 1.7 2.6 0.00 0.00 0.00 69 1013.9
20260902001016 89 322 0.9 1.7 0.00 0.00 0.00 68 1014.1
20260902000511 89 249 1.7 1.7 0.00 0.00 0.00 67 1014.0
20260902000005 89 227 3.5 3.5 0.00 0.00 0.00 67 1014.1
20260901235500 89 250 1.7 2.6 0.00 0.00 0.00 67 1014.0
20260901234955 90 247 3.5 5.2 0.00 0.00 0.00 65 1013.9
20260901234450 91 283 2.6 3.5 0.00 0.00 0.00 64 1014.1
20260901233944 91 242 3.5 5.2 0.00 0.00 0.00 63 1014.1
20260901233439 91 222 5.2 6.1 0.00 0.00 0.00 63 1014.1
20260901232936 92 208 3.5 3.5 0.00 0.00 0.00 62 1014.0
20260901232436 92 207 3.5 5.2 0.00 0.00 0.00 61 1013.7
20260901231931 92 319 3.5 3.5 0.00 0.00 0.00 61 1014.1
20260901231427 92 228 2.6 3.5 0.00 0.00 0.00 59 1014.1
20260901230924 92 236 3.5 6.1 0.00 0.00 0.00 59 1014.0
20260901230423 92 242 4.3 5.2 0.00 0.00 0.00 58 1014.1
20260901225919 93 253 6.1 7.8 0.00 0.00 0.00 58 1014.1
20260901225418 93 278 3.5 5.2 0.00 0.00 0.00 58 1014.3
20260901224913 93 260 3.5 5.2 0.00 0.00 0.00 57 1014.1
20260901224409 94 261 6.1 7.0 0.00 0.00 0.00 58 1014.1
20260901223906 94 240 3.5 5.2 0.00 0.00 0.00 59 1014.1
20260901223400 94 262 4.3 5.2 0.00 0.00 0.00 58 1014.0
20260901222856 94 289 2.6 2.6 0.00 0.00 0.00 57 1014.3
20260901222353 94 280 3.5 5.2 0.00 0.00 0.00 57 1014.3
20260901221848 94 265 4.3 6.1 0.00 0.00 0.00 57 1014.1
20260901221343 94 290 4.3 7.0 0.00 0.00 0.00 57 1014.3